EDT,Max TemperatureF,Mean TemperatureF,Min TemperatureF,Max Dew PointF,MeanDew PointF,Min DewpointF,Max Humidity, Mean Humidity, Min Humidity, Max Sea Level PressureIn, Mean Sea Level PressureIn, Min Sea Level PressureIn, Max VisibilityMiles, Mean VisibilityMiles, Min VisibilityMiles, Max Wind SpeedMPH, Mean Wind SpeedMPH, Max Gust SpeedMPH,PrecipitationIn, CloudCover, Events, WindDirDegrees
2013-8-1,81,70,60,66,63,56,100,90,43,30.01,29.98,29.95,10,5,0,15,6,23,0.00,4,Fog-Rain,292
2013-8-2,83,70,56,69,64,56,100,83,57,30.00,29.95,29.89,10,9,4,28,8,32,0.09,5,Rain-Thunderstorm,214
2013-8-3,80,72,63,68,65,53,100,91,51,30.09,29.99,29.96,10,8,1,17,7,21,1.31,6,Rain-Thunderstorm,23
2013-8-4,76,64,54,59,56,53,94,71,48,30.19,30.15,30.10,10,10,10,8,5,,0.00,2,,360
2013-8-5,76,68,60,66,61,57,97,80,57,30.13,30.05,29.96,10,10,6,12,3,,0.03,6,Rain,162
2013-8-6,80,70,62,71,67,62,100,88,74,29.96,29.93,29.90,10,10,9,10,6,,0.00,7,,167
2013-8-7,82,76,69,74,72,69,100,90,73,29.92,29.89,29.86,10,8,3,14,6,,0.00,5,Thunderstorm,216
2013-8-8,75,70,66,72,69,66,100,95,83,29.98,29.95,29.92,10,8,1,10,4,,0.14,6,Rain,38
2013-8-9,80,72,64,70,66,62,100,81,54,30.04,30.01,29.96,10,10,6,7,3,,0.00,5,,339
2013-8-10,83,74,65,71,66,62,96,78,52,30.11,30.09,30.06,10,10,10,13,4,,0.00,3,,284
2013-8-11,81,70,60,67,63,61,100,90,53,30.13,30.11,30.07,10,6,0,7,4,,0.00,1,Fog,26
2013-8-12,83,72,62,70,67,62,100,84,60,30.09,29.98,29.88,10,10,9,10,4,,0.00,3,Thunderstorm,222
2013-8-13,71,64,55,66,57,48,100,77,44,30.13,30.00,29.88,10,10,6,21,8,25,0.00,1,,336
2013-8-14,69,58,49,54,49,47,89,69,49,30.23,30.18,30.13,10,10,10,12,6,17,0.00,2,,360
2013-8-15,73,60,47,56,51,48,100,75,44,30.20,30.17,30.13,10,10,7,6,1,,0.00,1,,123
2013-8-16,75,66,57,59,57,55,97,75,50,30.19,30.17,30.14,10,10,9,6,1,,0.00,5,,96
2013-8-17,78,66,55,61,58,54,97,78,50,30.25,30.20,30.17,10,10,10,10,5,,0.00,2,,53
2013-8-18,80,68,56,66,61,56,100,78,51,30.21,30.17,30.12,10,10,6,7,3,,0.00,2,Rain,74
2013-8-19,83,70,59,66,62,58,95,75,50,30.15,30.12,30.07,10,10,9,6,3,,0.00,1,,230
2013-8-20,85,72,60,68,64,61,100,84,49,30.18,30.13,30.09,10,8,2,6,1,,0.00,1,Rain,130
2013-8-21,86,75,64,71,67,64,100,82,52,30.16,30.11,30.04,10,9,2,10,6,,0.00,1,,182
2013-8-22,78,72,66,72,69,66,100,91,77,30.13,30.08,30.03,10,9,0,16,6,25,0.06,4,Fog-Rain,275
2013-8-23,82,70,59,70,63,52,100,91,53,30.17,30.12,30.08,10,5,0,8,3,,0.00,3,Fog,22
2013-8-24,82,69,56,60,56,52,99,66,37,30.29,30.25,30.18,10,10,10,9,5,,0.00,0,,97
2013-8-25,86,72,59,66,62,58,97,70,43,30.31,30.26,30.22,10,10,10,10,5,,0.00,0,,191
2013-8-26,89,74,60,73,67,58,96,80,58,30.23,30.16,30.07,10,10,10,13,7,,0.00,0,,227
2013-8-27,90,80,70,76,73,70,100,83,59,30.06,30.00,29.93,10,10,10,15,9,,0.00,1,,243
2013-8-28,87,80,72,76,72,69,100,78,63,30.01,29.93,29.90,10,10,10,15,10,22,0.00,2,,296
2013-8-29,87,77,68,73,69,66,100,91,53,30.08,30.05,30.01,10,6,0,8,4,,0.00,3,Fog,30
2013-8-30,91,77,64,75,70,64,100,80,51,30.01,29.93,29.76,10,10,7,13,5,17,0.00,0,,192
2013-8-31,84,75,67,73,70,68,100,87,65,29.88,29.84,29.77,10,9,1,13,6,,0.71,4,Rain-Thunderstorm,18